STARLINK-5267, 55655

Orbit data source: Space-Track

STARLINK-5267, 55655 is a payload satellite owned by SpaceX/Seattle (US) in LEO that was launched on Fri, 17 Feb 2023 UTC via an FALCON 9 launch vehicle from the Air Force Western Test Range (AFWTR). Payload-class satellites include a variety of spacecraft equipped with specific instruments for various scientific and technological missions. These include communications satellites like Starlink; space stations such as the ISS; scientific satellites like the Hubble; Earth observation satellites from companies like Planet Labs, Umbra, and HawkEye 360; GPS; miniature CubeSats for education and research; and military/defense satellites.

Loading next visibility...
Identifier
55655, 2023-021AD
Orbit
LEO
Country
Flag of USUS
Related business
Manufacturer
SpaceX/Seattle
Mission
Operational Commercial Communications
Bus & Motor
STARLINK, Unknown motor
Mass
305 kg wet, ~290 kg dry
Launch date (UTC)
2023-02-17 (3 years ago)
Launch vehicle
FALCON 9
Launch site
Air Force Western Test Range (AFWTR)
Object type
Payload
Rocket body
Debris
Shape & HBR
Box + 1 Pan, 10.1 m
Radar Cross Section
13.562 m², Large (>1 m²)

Expand to show TLE details & history
Last TLE update: 2 days ago

TLE from 2 days ago
0 STARLINK-5267
1 55655U 23021AD  26171.44562090 -.00000408  00000-0 -26391-4 0  9990
2 55655  69.9995 265.4792 0003262 272.5468  87.5317 14.98334883184664
Epoch: 2026-06-20T10:41Z
TLE epoch observation values (Epoch: 2026-06-20T10:41:41.645Z)
Latitude
-0.0001°
Longitude
-163.60449°
Altitude
574.368 km
Speed
7.574 km/s
True Right ascension
17h 41m 54s
True Declination
0° 00' 00"
Sunlit
Object was in full shadow at epoch
Visualization orbit readout
Latitude
Unknown
Longitude
Unknown
Altitude
Unknown
Speed
Unknown
Apparent Right ascension
Unknown
Apparent Declination
Unknown
Sunlit
N/A
Visualization observer readout
Local Sidereal Time
21:49:10
Azimuth
Unknown
Elevation
Unknown
Doppler factor
Unknown
Orbital elements
Apogee altitude
572.256 km
Perigee altitude
567.723 km
Semi-major axis
6,948.126 km
Eccentricity
0.00033
Inclination
69.9995°
RAAN
265.4792°
Arg. of periapsis
272.5468°
True anomaly
87.56905°
Mean anomaly
87.5317°
Eccentric anomaly
87.55037°
Mean motion
3.7475 °/min
Orbital period
96.06 mins
BSTAR
-0.000026391
Loading maneuver chart data...
Computing Atmospheric mass density...

Documentation

Showing up to 5 results
|